Time,TemperatureF,DewpointF,PressureIn,WindDirection,WindDirectionDegrees,WindSpeedMPH,WindSpeedGustMPH,Humidity,HourlyPrecipIn,Conditions,Clouds,dailyrainin,SoftwareType,DateUTC
2013-11-26 00:03:00,33.1,19.0,30.21,SSE,155,1.0,3.0,55,0.00,,,0.00,weatherlink.com 1.10,2013-11-26 05:03:00,
2013-11-26 00:18:00,33.0,19.0,30.21,SW,221,0.0,4.0,56,0.00,,,0.00,weatherlink.com 1.10,2013-11-26 05:18:00,
2013-11-26 00:32:00,32.9,18.0,30.20,SSE,162,2.0,2.0,54,0.00,,,0.00,weatherlink.com 1.10,2013-11-26 05:32:00,
2013-11-26 00:47:00,32.7,19.0,30.21,SE,125,0.0,4.0,57,0.00,,,0.00,weatherlink.com 1.10,2013-11-26 05:47:00,
2013-11-26 01:01:00,32.5,18.0,30.21,WSW,257,0.0,3.0,55,0.00,,,0.00,weatherlink.com 1.10,2013-11-26 06:01:00,
2013-11-26 01:16:00,32.7,18.0,30.20,SW,217,0.0,3.0,55,0.00,,,0.00,weatherlink.com 1.10,2013-11-26 06:16:00,
2013-11-26 01:30:00,32.6,18.0,30.21,SSE,155,0.0,3.0,54,0.00,,,0.00,weatherlink.com 1.10,2013-11-26 06:30:00,
2013-11-26 01:45:00,32.6,16.0,30.21,SW,214,0.0,3.0,51,0.00,,,0.00,weatherlink.com 1.10,2013-11-26 06:45:00,
2013-11-26 01:59:00,32.5,19.0,30.21,SSE,156,0.0,1.0,56,0.00,,,0.00,weatherlink.com 1.10,2013-11-26 06:59:00,
2013-11-26 02:14:00,32.5,20.0,30.21,SE,131,1.0,2.0,60,0.00,,,0.00,weatherlink.com 1.10,2013-11-26 07:14:00,
2013-11-26 02:28:00,32.0,22.0,30.21,SSE,162,0.0,0.0,65,0.00,,,0.00,weatherlink.com 1.10,2013-11-26 07:28:00,
2013-11-26 02:43:00,31.4,23.0,30.21,SSE,160,1.0,2.0,70,0.00,,,0.00,weatherlink.com 1.10,2013-11-26 07:43:00,
2013-11-26 02:57:00,31.1,23.0,30.21,SSE,167,0.0,3.0,73,0.00,,,0.00,weatherlink.com 1.10,2013-11-26 07:57:00,
2013-11-26 03:11:00,31.0,23.0,30.21,SSW,204,0.0,1.0,73,0.00,,,0.00,weatherlink.com 1.10,2013-11-26 08:11:00,
2013-11-26 03:26:00,31.0,24.0,30.20,SE,139,0.0,0.0,75,0.00,,,0.00,weatherlink.com 1.10,2013-11-26 08:26:00,
2013-11-26 03:40:00,31.0,24.0,30.21,SSE,152,0.0,1.0,76,0.00,,,0.00,weatherlink.com 1.10,2013-11-26 08:40:00,
2013-11-26 03:55:00,31.1,25.0,30.21,SE,146,0.0,1.0,77,0.00,,,0.00,weatherlink.com 1.10,2013-11-26 08:55:00,
2013-11-26 04:09:00,31.1,25.0,30.21,SE,137,0.0,1.0,77,0.00,,,0.00,weatherlink.com 1.10,2013-11-26 09:09:00,
2013-11-26 04:24:00,31.2,25.0,30.21,SE,127,0.0,1.0,77,0.00,,,0.00,weatherlink.com 1.10,2013-11-26 09:24:00,
2013-11-26 04:38:00,31.3,25.0,30.20,ESE,123,1.0,1.0,78,0.00,,,0.00,weatherlink.com 1.10,2013-11-26 09:38:00,
2013-11-26 04:52:00,31.4,26.0,30.21,SSE,160,0.0,1.0,79,0.00,,,0.00,weatherlink.com 1.10,2013-11-26 09:52:00,
2013-11-26 05:07:00,31.4,26.0,30.20,SSE,154,0.0,0.0,81,0.00,,,0.00,weatherlink.com 1.10,2013-11-26 10:07:00,
2013-11-26 05:21:00,31.5,26.0,30.20,SSW,206,2.0,2.0,80,0.00,,,0.00,weatherlink.com 1.10,2013-11-26 10:21:00,
2013-11-26 05:36:00,31.6,26.0,30.20,SSW,192,1.0,1.0,79,0.00,,,0.00,weatherlink.com 1.10,2013-11-26 10:36:00,
2013-11-26 05:50:00,31.7,26.0,30.21,ESE,109,0.0,2.0,80,0.00,,,0.00,weatherlink.com 1.10,2013-11-26 10:50:00,
2013-11-26 06:05:00,31.8,26.0,30.20,SSE,155,0.0,1.0,80,0.00,,,0.00,weatherlink.com 1.10,2013-11-26 11:05:00,
2013-11-26 06:19:00,32.0,27.0,30.22,SE,143,0.0,3.0,81,0.00,,,0.00,weatherlink.com 1.10,2013-11-26 11:19:00,
2013-11-26 06:34:00,32.1,27.0,30.23,West,262,1.0,1.0,80,0.00,,,0.00,weatherlink.com 1.10,2013-11-26 11:34:00,
2013-11-26 06:48:00,32.1,27.0,30.22,SE,144,0.0,1.0,81,0.00,,,0.00,weatherlink.com 1.10,2013-11-26 11:48:00,
2013-11-26 07:03:00,32.2,27.0,30.23,SSW,198,0.0,1.0,81,0.00,,,0.00,weatherlink.com 1.10,2013-11-26 12:03:00,
2013-11-26 07:17:00,32.3,27.0,30.23,SSW,204,0.0,0.0,81,0.00,,,0.00,weatherlink.com 1.10,2013-11-26 12:17:00,
2013-11-26 07:31:00,32.5,27.0,30.23,SW,221,0.0,2.0,80,0.00,,,0.00,weatherlink.com 1.10,2013-11-26 12:31:00,
2013-11-26 07:46:00,32.7,27.0,30.23,South,184,0.0,1.0,80,0.00,,,0.00,weatherlink.com 1.10,2013-11-26 12:46:00,
2013-11-26 08:00:00,32.9,27.0,30.24,WSW,237,0.0,1.0,80,0.00,,,0.00,weatherlink.com 1.10,2013-11-26 13:00:00,
2013-11-26 08:15:00,33.2,27.0,30.24,SW,219,0.0,1.0,79,0.00,,,0.00,weatherlink.com 1.10,2013-11-26 13:15:00,
2013-11-26 08:29:00,33.4,28.0,30.24,South,171,0.0,1.0,79,0.00,,,0.00,weatherlink.com 1.10,2013-11-26 13:29:00,
2013-11-26 08:44:00,33.6,28.0,30.23,South,172,0.0,0.0,79,0.00,,,0.00,weatherlink.com 1.10,2013-11-26 13:44:00,
2013-11-26 08:58:00,34.2,28.0,30.24,SSE,166,0.0,1.0,78,0.00,,,0.00,weatherlink.com 1.10,2013-11-26 13:58:00,
2013-11-26 09:13:00,34.8,28.0,30.24,ESE,123,0.0,0.0,76,0.00,,,0.00,weatherlink.com 1.10,2013-11-26 14:13:00,
2013-11-26 09:27:00,35.1,28.0,30.24,South,191,0.0,0.0,75,0.00,,,0.00,weatherlink.com 1.10,2013-11-26 14:27:00,
2013-11-26 09:41:00,35.3,28.0,30.24,SSE,160,0.0,2.0,75,0.00,,,0.00,weatherlink.com 1.10,2013-11-26 14:41:00,
2013-11-26 09:56:00,35.6,28.0,30.23,South,188,0.0,4.0,75,0.00,,,0.00,weatherlink.com 1.10,2013-11-26 14:56:00,
2013-11-26 10:11:00,36.0,28.0,30.23,SSE,158,0.0,1.0,73,0.00,,,0.00,weatherlink.com 1.10,2013-11-26 15:11:00,
2013-11-26 10:25:00,35.8,28.0,30.21,SE,139,0.0,4.0,73,0.00,,,0.00,weatherlink.com 1.10,2013-11-26 15:25:00,
2013-11-26 10:39:00,36.1,29.0,30.21,SSE,151,0.0,1.0,74,0.00,,,0.00,weatherlink.com 1.10,2013-11-26 15:39:00,
2013-11-26 10:54:00,36.4,29.0,30.22,SE,143,0.0,1.0,73,0.00,,,0.00,weatherlink.com 1.10,2013-11-26 15:54:00,
2013-11-26 11:09:00,36.5,29.0,30.23,SSE,160,0.0,2.0,73,0.00,,,0.00,weatherlink.com 1.10,2013-11-26 16:09:00,
2013-11-26 11:23:00,36.8,29.0,30.21,WSW,247,1.0,3.0,73,0.00,,,0.00,weatherlink.com 1.10,2013-11-26 16:23:00,
2013-11-26 11:37:00,36.9,29.0,30.21,SSW,206,0.0,3.0,73,0.01,,,0.01,weatherlink.com 1.10,2013-11-26 16:37:00,
2013-11-26 11:52:00,37.6,29.0,30.20,ESE,118,0.0,1.0,71,0.01,,,0.01,weatherlink.com 1.10,2013-11-26 16:52:00,
2013-11-26 12:06:00,37.6,29.0,30.21,SE,141,0.0,2.0,72,0.01,,,0.01,weatherlink.com 1.10,2013-11-26 17:06:00,
2013-11-26 12:21:00,37.3,29.0,30.20,SE,146,0.0,1.0,72,0.01,,,0.01,weatherlink.com 1.10,2013-11-26 17:21:00,
2013-11-26 12:35:00,37.2,29.0,30.20,SE,139,0.0,2.0,73,0.00,,,0.01,weatherlink.com 1.10,2013-11-26 17:35:00,
2013-11-26 12:50:00,36.9,30.0,30.20,East,95,0.0,2.0,75,0.01,,,0.02,weatherlink.com 1.10,2013-11-26 17:50:00,
2013-11-26 13:04:00,35.9,31.0,30.20,SE,127,0.0,2.0,82,0.01,,,0.02,weatherlink.com 1.10,2013-11-26 18:04:00,
2013-11-26 13:18:00,35.5,31.0,30.19,SE,134,0.0,1.0,84,0.01,,,0.02,weatherlink.com 1.10,2013-11-26 18:18:00,
2013-11-26 13:33:00,35.4,31.0,30.19,SE,129,0.0,1.0,85,0.01,,,0.02,weatherlink.com 1.10,2013-11-26 18:33:00,
2013-11-26 13:47:00,34.8,31.0,30.18,ESE,111,0.0,1.0,87,0.00,,,0.02,weatherlink.com 1.10,2013-11-26 18:47:00,
2013-11-26 14:02:00,34.4,31.0,30.18,East,101,0.0,1.0,88,0.00,,,0.02,weatherlink.com 1.10,2013-11-26 19:02:00,
2013-11-26 14:16:00,34.2,31.0,30.17,ESE,122,0.0,1.0,89,0.00,,,0.02,weatherlink.com 1.10,2013-11-26 19:16:00,
2013-11-26 14:31:00,34.2,32.0,30.17,ESE,110,0.0,1.0,90,0.01,,,0.03,weatherlink.com 1.10,2013-11-26 19:31:00,
2013-11-26 14:45:00,34.2,31.0,30.16,East,99,1.0,2.0,89,0.01,,,0.03,weatherlink.com 1.10,2013-11-26 19:45:00,
2013-11-26 14:59:00,34.0,31.0,30.16,SE,125,1.0,2.0,90,0.01,,,0.03,weatherlink.com 1.10,2013-11-26 19:59:00,
2013-11-26 15:14:00,33.8,31.0,30.15,ESE,107,0.0,1.0,91,0.01,,,0.03,weatherlink.com 1.10,2013-11-26 20:14:00,
2013-11-26 15:29:00,33.6,31.0,30.14,ESE,104,0.0,1.0,91,0.01,,,0.03,weatherlink.com 1.10,2013-11-26 20:29:00,
2013-11-26 15:43:00,33.3,31.0,30.14,ESE,113,0.0,2.0,93,0.00,,,0.03,weatherlink.com 1.10,2013-11-26 20:43:00,
2013-11-26 15:57:00,33.1,32.0,30.12,ESE,105,0.0,2.0,94,0.00,,,0.03,weatherlink.com 1.10,2013-11-26 20:57:00,
2013-11-26 16:13:00,32.9,32.0,30.11,East,96,0.0,1.0,95,0.00,,,0.03,weatherlink.com 1.10,2013-11-26 21:13:00,
2013-11-26 16:27:00,32.8,32.0,30.11,East,98,0.0,1.0,95,0.00,,,0.03,weatherlink.com 1.10,2013-11-26 21:27:00,
2013-11-26 16:42:00,32.7,32.0,30.11,ESE,108,0.0,1.0,96,0.00,,,0.03,weatherlink.com 1.10,2013-11-26 21:42:00,
2013-11-26 16:56:00,32.7,32.0,30.11,East,101,0.0,1.0,96,0.00,,,0.03,weatherlink.com 1.10,2013-11-26 21:56:00,
2013-11-26 17:11:00,32.6,32.0,30.11,East,98,0.0,1.0,96,0.00,,,0.03,weatherlink.com 1.10,2013-11-26 22:11:00,
2013-11-26 17:25:00,32.6,32.0,30.10,East,99,0.0,1.0,96,0.00,,,0.03,weatherlink.com 1.10,2013-11-26 22:25:00,
2013-11-26 17:39:00,32.6,32.0,30.09,East,81,0.0,1.0,97,0.00,,,0.03,weatherlink.com 1.10,2013-11-26 22:39:00,
2013-11-26 17:54:00,32.6,32.0,30.08,East,91,0.0,1.0,97,0.00,,,0.03,weatherlink.com 1.10,2013-11-26 22:54:00,
2013-11-26 18:09:00,32.6,32.0,30.08,East,98,0.0,1.0,97,0.00,,,0.03,weatherlink.com 1.10,2013-11-26 23:09:00,
2013-11-26 18:23:00,32.6,32.0,30.08,East,99,0.0,1.0,97,0.00,,,0.03,weatherlink.com 1.10,2013-11-26 23:23:00,
2013-11-26 18:37:00,32.6,32.0,30.07,East,93,0.0,1.0,97,0.00,,,0.03,weatherlink.com 1.10,2013-11-26 23:37:00,
2013-11-26 18:52:00,32.7,32.0,30.05,East,98,0.0,1.0,97,0.00,,,0.03,weatherlink.com 1.10,2013-11-26 23:52:00,
2013-11-26 19:07:00,32.7,32.0,30.04,East,82,1.0,2.0,97,0.00,,,0.03,weatherlink.com 1.10,2013-11-27 00:07:00,
2013-11-26 19:21:00,32.8,32.0,30.04,East,86,0.0,2.0,97,0.00,,,0.03,weatherlink.com 1.10,2013-11-27 00:21:00,
2013-11-26 19:35:00,32.8,32.0,30.03,East,83,0.0,0.0,97,0.00,,,0.03,weatherlink.com 1.10,2013-11-27 00:35:00,
2013-11-26 19:50:00,32.8,32.0,30.02,East,85,0.0,1.0,97,0.00,,,0.03,weatherlink.com 1.10,2013-11-27 00:50:00,
2013-11-26 20:04:00,32.8,32.0,30.01,East,84,0.0,1.0,97,0.00,,,0.03,weatherlink.com 1.10,2013-11-27 01:04:00,
2013-11-26 20:19:00,32.8,32.0,30.00,East,84,0.0,1.0,97,0.00,,,0.03,weatherlink.com 1.10,2013-11-27 01:19:00,
2013-11-26 20:33:00,32.8,32.0,29.98,East,101,0.0,1.0,97,0.01,,,0.04,weatherlink.com 1.10,2013-11-27 01:33:00,
2013-11-26 20:48:00,32.9,32.0,29.97,East,85,0.0,1.0,97,0.02,,,0.05,weatherlink.com 1.10,2013-11-27 01:48:00,
2013-11-26 21:02:00,32.9,32.0,29.96,East,85,0.0,0.0,97,0.04,,,0.07,weatherlink.com 1.10,2013-11-27 02:02:00,
2013-11-26 21:17:00,33.0,32.0,29.95,East,88,0.0,1.0,97,0.06,,,0.09,weatherlink.com 1.10,2013-11-27 02:17:00,
2013-11-26 21:31:00,33.1,32.0,29.94,East,86,0.0,1.0,97,0.07,,,0.11,weatherlink.com 1.10,2013-11-27 02:31:00,
2013-11-26 21:45:00,33.1,32.0,29.95,ENE,77,0.0,1.0,97,0.08,,,0.13,weatherlink.com 1.10,2013-11-27 02:45:00,
2013-11-26 22:00:00,33.2,33.0,29.93,ENE,77,0.0,1.0,98,0.08,,,0.15,weatherlink.com 1.10,2013-11-27 03:00:00,
2013-11-26 22:15:00,33.2,33.0,29.92,East,92,0.0,1.0,98,0.09,,,0.18,weatherlink.com 1.10,2013-11-27 03:15:00,
2013-11-26 22:29:00,33.3,33.0,29.91,East,91,1.0,1.0,98,0.10,,,0.21,weatherlink.com 1.10,2013-11-27 03:29:00,
2013-11-26 22:43:00,33.4,33.0,29.91,East,79,0.0,1.0,98,0.11,,,0.24,weatherlink.com 1.10,2013-11-27 03:43:00,
2013-11-26 22:58:00,33.6,33.0,29.91,East,91,0.0,1.0,98,0.13,,,0.28,weatherlink.com 1.10,2013-11-27 03:58:00,
2013-11-26 23:12:00,33.7,33.0,29.91,East,91,0.0,0.0,98,0.15,,,0.32,weatherlink.com 1.10,2013-11-27 04:12:00,
2013-11-26 23:27:00,33.9,33.0,29.90,East,91,0.0,1.0,98,0.16,,,0.37,weatherlink.com 1.10,2013-11-27 04:27:00,
2013-11-26 23:41:00,34.0,33.0,29.89,East,95,0.0,0.0,98,0.19,,,0.43,weatherlink.com 1.10,2013-11-27 04:41:00,
2013-11-26 23:55:00,34.3,34.0,29.87,East,91,0.0,2.0,98,0.21,,,0.49,weatherlink.com 1.10,2013-11-27 04:55:00,